Regional Weather Roundup
Issued by NWS Pendleton, OR

Home | Current Version | Previous Version | Text Only | Print | Product List | Glossary On
Versions: 1 2 3 4 5 6 7 8 9 10 11 12 13 14 15 16 17 18 19 20 21 22 23 24 25 26 27 28 29 30 31 32 33 34 35 36 37 38 39 40 41 42 43 44 45 46 47 48 49 50
533
ASUS46 KPDT 230425
RWRPDT
PENDLETON REGIONAL WEATHER ROUNDUP
NATIONAL WEATHER SERVICE PENDLETON OREGON
900 PM PDT SUN OCT 22 2017

NOTE: FAIR INDICATES FEW OR NO CLOUDS BELOW 12,000 FEET WITH NO
SIGNIFICANT WEATHER AND/OR OBSTRUCTIONS TO VISIBILITY.

# INDICATES UNOFFICIAL STATION AND DATA

WAZ520-230510-
EAST SLOPES OF WASHINGTON CASCADES

CITY            SKY/WX      TMP DP  RH  WIND    PRES   REMARKS
#BULLFROG       N/A         44  43  96  W2      N/A
#CLE ELUM HS    N/A         45  42  89  W1      30.33R
#CLE ELUM LAKE  N/A         44  38  79  CALM    30.39R
#EASTON DOT     N/A         42  40  93  CALM    N/A
#ELK HTS DOT    N/A         45  44  96  W2      N/A
#GLENWOOD       N/A         50  42  74  SW3     30.38R
#NELSON 3SW     N/A         41  39  93  CALM    30.63R
#NILE           N/A         40  37  89  CALM    29.67R
#TEANAWAY 4NE   N/A         46  43  89  W6      N/A
#TROUT LAKE 1NE N/A         48  43  83  CALM    30.40R
#TROUT LAKE 1E  N/A         44  42  93  CALM    30.42R
$$

WAZ521-230510-
SIMCOE HIGHLANDS

CITY            SKY/WX      TMP DP  RH  WIND    PRES   REMARKS
#BICKLETON HS   N/A         44  41  89  W5      30.39R
#CENTERVILLE 1SWN/A         50  42  74  W8      30.38R
#GOLDENDALE 4W  N/A         49  28  44  SW6     30.44R
#GOODNOE HILLS  N/A         50  44  80  CALM    N/A
#LYLE 6NE       N/A         51  44  77  SW1     30.41R
#PITT 4SE       N/A         45  40  82  SW5     30.42R
$$

WAZ026-230510-
KITTITAS VALLEY

CITY            SKY/WX      TMP DP  RH  WIND    PRES   REMARKS
ELLENSBURG AP   CLOUDY      50  40  68  NW14    30.37R
#ELLENSBURG CWU N/A         49  41  74  NW2     30.33R
#ELLENSBURG 3NE N/A         47  41  79  W5      28.43R
#ELLENSBURG 1E  N/A         48  40  74  CALM    30.43R
#KITTITAS 3S    N/A         45  40  82  E3      30.38R
#MANASTASH RDG  N/A         45  45  100 NW5     N/A
#ROCKY CYN DOT  N/A         48  41  77  W7      N/A
#RYEGRASS DOT   N/A         46  36  68  W10     N/A
$$

WAZ027-230510-
YAKIMA VALLEY

CITY            SKY/WX      TMP DP  RH  WIND    PRES   REMARKS
SUNNYSIDE AP    CLOUDY      44  39  82  N7      30.40R
YAKIMA AIRPORT  CLOUDY      55  38  53  W7      30.37R
YAKIMA-VAGABOND CLEAR       47  37  68  E9      30.36R
#GRANDVIEW      N/A         51  37  59  CALM    30.34R
#MABTON         N/A         55  41  59  CALM    30.39R
#MOXEE 2E       N/A         56  N/A N/A SE2     30.00R
#NACHES 2SW     N/A         45  38  76  CALM    30.42R
#OUTLOOK DOT    N/A         54  39  57  CALM    30.36R
#PARKER DOT     N/A         48  40  74  W3      30.37R
#TERRACE HTS    N/A         50  38  63  CALM    30.35R
#TOPPENISH      N/A         53  40  61  CALM    30.30R
#I82 S UMTANUM RN/A         43  34  70  NE8     N/A
#UNION GAP DOT  N/A         52  39  61  SE2     30.40R
#W YAKIMA       N/A         49  38  66  N2      30.39R
#WHITE SWAN 5E  N/A         52  39  61  CALM    30.38R
#WILEY CITY 3W  N/A         48  35  60  CALM    30.34R
#ZILLAH DOT     N/A         47  39  74  E5      N/A
$$

WAZ028-230510-
LOWER COLUMBIA BASIN...WASHINGTON

CITY            SKY/WX      TMP DP  RH  WIND    PRES   REMARKS
PASCO           CLOUDY      55  40  57  W5      30.40R
PROSSER AWOS    N/A         48  39  71  CALM    30.43R
RICHLAND AWOS   CLOUDY      51  41  68  SW5     30.41R
#BENTON CITY    N/A         51  39  63  CALM    30.30R
#CONNELL 5N     N/A         48  41  77  W1      30.36R
#CONNELL 5NW    N/A         48  41  77  NW3     30.31R
#ELTOPIA 6NW    N/A         51  42  71  CALM    29.35R
#KAHLOTUS       N/A         52  40  63  NW8     30.36R
#KENNEWICK 3S   N/A         52  41  66  CALM    30.39R
#PROSSER DOT    N/A         51  39  63  CALM    30.41R
#SAGEMOOR 2W    N/A         52  41  66  NW2     30.25R
#TOUCHET 2S     N/A         55  45  69  SW13    30.37R
#WEST PASCO     N/A         52  40  63  CALM    30.41R
$$

WAZ029-230510-
FOOTHILLS OF THE BLUES...WASHINGTON

CITY            SKY/WX      TMP DP  RH  WIND    PRES   REMARKS
WALLA WALLA AP  CLOUDY      54  43  66  S14     30.41R
#CLYDE 6NW      N/A         51  40  66  SW9     30.37R
#DELANEY DOT    N/A         55  40  57  SE10    30.40R
#LOWDEN 2SE     N/A         56  44  64  W5      30.38R
#PLEASANT VIEW 1N/A         46  40  79  S3      30.41R
#PRESCOTT       N/A         52  43  71  CALM    30.37R
#WHITMAN COLLEGEN/A         54  43  66  S5      30.45R
#WAITSBURG 6SSE N/A         51  40  66  E5      30.40R
#WAITSBURG 8N   N/A         48  N/A N/A S14     30.41R WCI 42
#WALLA WALLA 5E N/A         52  44  74  S12     N/A
#WHITMAN MISSIONN/A         56  44  64  CALM    30.41R
$$

WAZ030-230510-
BLUE MOUNTAINS...WASHINGTON

CITY            SKY/WX      TMP DP  RH  WIND    PRES   REMARKS
#DIXIE 5SE      N/A         48  43  83  SW18G26 30.34R WCI 41
$$

ORZ009-041-WAZ024-230510-
COLUMBIA RIVER GORGE

CITY            SKY/WX      TMP DP  RH  WIND    PRES   REMARKS
HOOD RIVER AP   MOCLDY      46  43  89  CALM    30.43R
THE DALLES AP   PTCLDY      49  46  89  W6      30.40R
#ARLINGTON AIRPON/A         53  44  71  W2      30.43R
#CELILO DOT     N/A         55  42  61  S3      N/A
#LYLE           N/A         55  48  77  E2      30.43R
#MARYHILL       N/A         56  42  59  N9      30.28
#MURDOCK        N/A         54  48  80  S1      30.38R
#RUFUS DOT      N/A         57  N/A N/A NW8     N/A
#SMITHVILLE     N/A         50  46  86  N1      30.37R

$$

ORZ510-230510-
NORTH CENTRAL OREGON

CITY            SKY/WX      TMP DP  RH  WIND    PRES   REMARKS
#ANTELOPE       N/A         48  40  74  CALM    30.28R
#CHENOWITH 1W   N/A         48  45  89  W8      N/A
#COW CYN RST AREN/A         47  41  79  CALM    N/A
#DUFUR          N/A         43  40  89  CALM    30.37R
#DUFUR 9E       N/A         51  40  66  W8      30.44R
#KENT DOT       N/A         47  32  56  W12     N/A    WCI 42
#MAUPIN SCHOOL  N/A         56  41  57  W5      30.46R
#MORO SCHOOL    N/A         49  44  83  SE5     30.40R
#SHANIKO 5WSW   N/A         45   3  17  W12     N/A    WCI 39
#SHANIKO 4NW    N/A         45  38  76  W12     30.42R WCI 39
#TYGH VALLEY 2NEN/A         55  43  64  N3      30.38R
#WAPANITIA AIRPON/A         51  42  71  SW3     30.42R
#WASCO 5NE      N/A         46  39  76  SW3     30.40R
$$

ORZ511-230510-
CENTRAL OREGON

CITY            SKY/WX      TMP DP  RH  WIND    PRES   REMARKS
BEND AIRPORT    PTCLDY      43  37  79  SE5     30.48R
MADRAS AIRPORT  MOCLDY      N/A N/A N/A CALM    30.46R
PRINEVILLE AP   MOCLDY      48  39  71  W9      30.46R
REDMOND AIRPORT MOCLDY      47  37  68  W3      30.45R
#ASHWOOD SCHOOL N/A         49  43  80  CALM    30.38R
#BEND 1SW       N/A         46  39  76  CALM    N/A
#BEND-AWBREY    N/A         44  39  82  S2      30.42R
#BEND-KIM LN    N/A         43  37  79  CALM    30.35R
#CULVER         N/A         49  40  71  S3      30.26R
#CULVER 8W      N/A         50  40  68  CALM    30.41R
#LAKE BILLY CHINN/A         52  N/A N/A W5      30.46R
#MADRAS 4S      N/A         47   9  21  CALM    N/A
#POWELL BUTTE   N/A         48  40  74  W5      30.37R
#PRINEVILLE     N/A         48  39  71  CALM    30.49R
#PRINEVILLE 3N  N/A         49  40  71  SW1     30.40R
#WARM SPRINGS   N/A         51  44  77  CALM    30.29R

$$


ORZ509-230510-
EAST SLOPES OF OREGON CASCADES

CITY            SKY/WX      TMP DP  RH  WIND    PRES   REMARKS
SISTERS AWOS    N/A         52  39  61  W8      N/A
#BLUE BOX PASS  N/A         42  N/A N/A CALM    N/A
#CAMP SHERMAN   N/A         49  40  71  CALM    30.48R
#LA PINE DOT    N/A         45  37  73  S1      N/A
#LA PINE 4NW    N/A         44  39  82  CALM    30.46R
#LAVA BUTTE DOT N/A         40  35  82  CALM    N/A
#SISTERS ODOT   N/A         51  39  63  W2      N/A
#SISTERS 3N     N/A         46  39  76  CALM    30.41S
#SUNRIVER       N/A         45  40  82  CALM    30.44R
#TUMALO 3W      N/A         44  38  79  CALM    30.28R
#WANOGA BUTTE D N/A         38  36  92  W8      N/A

$$

ORZ044-230510-
LOWER COLUMBIA BASIN...OREGON

CITY            SKY/WX      TMP DP  RH  WIND    PRES   REMARKS
HERMISTON       CLOUDY      54  45  71  S10     30.40R
#BOARDMAN SCHOOLN/A         56  44  64  S8      30.40R
#ECHO 8SW       N/A         53  43  69  SW2     30.43R
#I-84 EX 198 DOTN/A         53  42  66  NE8     N/A
#IONE SCHOOL    N/A         52  31  44  CALM    30.41R
#UMATILLA       N/A         54  42  64  S5      30.33R
$$

ORZ507-230510-
NORTHERN FOOTHILLS OF THE BLUES

CITY            SKY/WX      TMP DP  RH  WIND    PRES   REMARKS
PENDLETON AIRPT CLOUDY      53  41  64  W10     30.42R
#ADAMS 3WNW     N/A         47  42  83  SW5     30.40R
#ATHENA         N/A         50  43  77  SW1     30.43R
#CAYUSE         N/A         53  42  66  W5      30.40R
#HELIX SCHOOL   N/A         50  43  77  N12     30.40R
#HELIX 3N       N/A         48  42  80  SW12    30.37R WCI 43
#HOLDMAN 5SE    N/A         50  44  80  S3      30.40R
#HOLDMAN 6E     N/A         49  44  83  S8      30.20R
#M-F GROVE ELEM N/A         54  40  59  S1      30.38R
#M-FREEWATER 5SEN/A         54  43  66  CALM    30.40R
#PENDLETON DNTN N/A         53  38  57  CALM    30.40R
#PDT AQUATIC CTRN/A         52  40  63  CALM    30.40R
#PDT SUNRIDGE   N/A         51  43  74  CALM    30.44R
#PENDLETON 7NW  N/A         52  43  71  CALM    28.23F
#PILOT ROCK 1S  N/A         50  41  71  S2      30.42R
#PILOT ROCK     N/A         49  42  77  CALM    30.43R
#TUTUILLA       N/A         51  44  77  CALM    30.45R
#UMAPINE 2E     N/A         55  43  64  SW1     30.39R
#WESTON SCHOOL  N/A         51  41  68  SW6     30.36R

$$

ORZ508-230510-
SOUTHERN FOOTHILLS OF THE BLUES

CITY            SKY/WX      TMP DP  RH  WIND    PRES   REMARKS
LEXINGTON       MOCLDY      48  43  83  E8      30.47R
#AJAX           N/A         49  36  61  NW3     30.52R
#FOSSIL SCHOOL  N/A         49  42  77  CALM    30.35R
#HEPPNER EOC    N/A         47  41  79  E5      30.35R
#HEPPNER 4NE    N/A         45  40  82  CALM    30.40R
#LEXINGTON 2SE  N/A         49  42  77  SE3     30.40R
#MIKKALO        N/A         49  41  74  SE6     30.50R
#OLEX 4N        N/A         52  44  74  S7      30.39R
#RUGGS 5NE      N/A         44  42  93  E1      30.59S
#RUGGS 2SW      N/A         46  40  79  W6      30.43R

$$

ORZ502-503-230510-
BLUE MOUNTAINS

CITY            SKY/WX      TMP DP  RH  WIND    PRES   REMARKS
MEACHAM         PTCLDY      43  41  93  CALM    30.44R
#BATTLE MTN DOT N/A         42  40  93  NE2     N/A
#GRANITE        N/A         41  37  86  CALM    30.45R
#GREENHORN 9SW  N/A         42  41  96  CALM    26.59R
#HEPPNER 15SE   N/A         42  39  89  CALM    30.42R
#LADD CYN SMT   N/A         46  39  76  W12     N/A    WCI 40
#LADD CREEK ODOTN/A         45  42  89  W2      N/A
#LONG CREEK HS  N/A         48  46  93  CALM    30.46R
#N POWDER DOT   N/A         44  41  89  NW3     N/A
#PIKES PEAK     N/A         45  37  73  SW13    27.99S WCI 39
#TOLLGATE       N/A         37  36  96  SW5     30.22R
#TROY SCHOOL    N/A         49  42  77  CALM    30.27R
#UKIAH          N/A         41  39  93  CALM    30.34R
#WESTON 4E      N/A         44  40  86  S5      30.38R
$$

ORZ505-230510-
JOHN DAY BASIN

CITY            SKY/WX      TMP DP  RH  WIND    PRES   REMARKS
JOHN DAY        CLOUDY      49  42  77  E5      30.46R
#ANTELOPE 9ESE  N/A         53  43  69  SE7     N/A
#DAYVILLE SCHOOLN/A         50  39  66  W2      30.36R
#MITCHELL 8NW   N/A         47  40  76  E1      30.45R
#MONUMENT HS    N/A         54  43  66  NW1     30.37R
#SPRAY SCHOOL   N/A         50  N/A N/A CALM    N/A
$$

ORZ506-230510-
OCHOCO AND JOHN DAY HIGHLANDS

CITY            SKY/WX      TMP DP  RH  WIND    PRES   REMARKS
#HORSE RIDGE DO N/A         41  36  82  CALM    N/A
#IZEE 6NW       N/A         59  37  44  S2      N/A
#PAULINA ODOT   N/A         47  36  65  W3      N/A
#PINE MTN OBS   N/A         39  36  89  W3      N/A
#PRAIRIE CITY   N/A         44  41  89  CALM    30.58R
#SENECA         N/A         37  N/A N/A CALM    N/A
#SENECA 9NW     N/A         35  34  96  CALM    30.44R
$$

ORZ049-230510-
GRANDE RONDE VALLEY

CITY            SKY/WX      TMP DP  RH  WIND    PRES   REMARKS
LA GRANDE       CLOUDY      46  43  89  SW5     30.45R
#COVE           N/A         47  45  93  NE2     30.44R
#COVE SCHOOL    N/A         47  43  86  CALM    30.42R
#COVE 6NW       N/A         46  42  86  CALM    30.44R
#ELGIN 3N       N/A         46  40  79  S2      30.81R
#ELGIN 1E       N/A         46  40  79  CALM    N/A
#IMBLER SCHOOL  N/A         44  40  86  CALM    30.38R
#ISLAND CITY 4N N/A         49  48  96  CALM    30.45R
#UNION 1S       N/A         48  42  80  CALM    30.43R
$$

ORZ050-230510-
WALLOWA COUNTY

CITY            SKY/WX      TMP DP  RH  WIND    PRES   REMARKS
JOSEPH AIRPORT  CLOUDY      41  37  86  CALM    30.43R
#ENTERPRISE HS  N/A         42  37  82  CALM    30.29R
#IMNAHA SCHOOL  N/A         52  43  71  N5      30.40R
#IMNAHA 10S     N/A         45  39  79  S3      30.39R
#JOSEPH         N/A         42  38  86  CALM    30.82R
#JOSEPH 3N      N/A         39  33  79  CALM    30.40R
#JOSEPH 3W      N/A         39  39  100 SW1     30.81R
#LOSTINE        N/A         41  37  86  CALM    30.21R
#LOSTINE 3SE    N/A         41  35  79  CALM    30.47R
#MT HOWARD 8000 N/A         31  28  88  W2      30.41R
#PROMISE 1S     N/A         46  38  73  W9      30.50R
#WALLOWA LAKE   N/A         39  38  96  CALM    30.43R
#WALLOWA SCHOOL N/A         44  40  86  CALM    30.37R



$$



USA.gov is the U.S. government's official web portal to all federal, state and local government web resources and services.